This is the latest recevied weather packets stored in our database for station/object IZ0DPP-10. If no packets are shown the sender has not sent any weather packets the latest 10 day(s).
| Time | Temp. | Humidity | Pressure | Rain* | Wind** | Luminosity | Snow |
|---|---|---|---|---|---|---|---|
| 1777473944 | 26.67° C | 70% | 1015.8 hPa | - | - | - | - |
| 1777473044 | 26.67° C | 71% | 1016 hPa | - | - | - | - |
| 1777472144 | 27.22° C | 70% | 1016.1 hPa | - | - | - | - |
| 1777471244 | 27.22° C | 71% | 1016.2 hPa | - | - | - | - |
| 1777470344 | 27.78° C | 69% | 1016.2 hPa | - | - | - | - |
| 1777469444 | 28.33° C | 69% | 1016.2 hPa | - | - | - | - |
| 1777468543 | 27.78° C | 79% | 1016.3 hPa | - | - | - | - |
| 1777467643 | 30.56° C | 61% | 1016.3 hPa | - | - | - | - |
| 1777466743 | 27.78° C | 65% | 1016.5 hPa | - | - | - | - |
| 1777465843 | 28.33° C | 55% | 1016.7 hPa | - | - | - | - |
| 1777464943 | 28.33° C | 51% | 1016.8 hPa | - | - | - | - |
| 1777464043 | 28.89° C | 54% | 1016.8 hPa | - | - | - | - |
| 1777463143 | 28.89° C | 53% | 1016.9 hPa | - | - | - | - |
| 1777462243 | 28.33° C | 52% | 1017.1 hPa | - | - | - | - |
| 1777461343 | 27.78° C | 60% | 1017.2 hPa | - | - | - | - |
| 1777460443 | 28.33° C | 86% | 1017.2 hPa | - | - | - | - |
| 1777459543 | 27.22° C | 79% | 1017.3 hPa | - | - | - | - |
| 1777458642 | 27.22° C | 87% | 1017.2 hPa | - | - | - | - |
| 1777457742 | 28.33° C | 92% | 1017.2 hPa | - | - | - | - |
| 1777456842 | 27.22° C | 100% | 1017.3 hPa | - | - | - | - |
| 1777455942 | 26.67° C | 100% | 1017.5 hPa | - | - | - | - |
| 1777455050 | 26.67° C | 100% | 1017.6 hPa | - | - | - | - |
| 1777454150 | 26.11° C | 100% | 1017.7 hPa | - | - | - | - |
| 1777453250 | 25.56° C | 100% | 1017.7 hPa | - | - | - | - |
| 1777452350 | 24.44° C | 100% | 1017.7 hPa | - | - | - | - |
* Rain since midnight (hover to see other rain measurements)
** Current wind speed in m/s (hover to see current wind gust speed)